Regional Weather Roundup
Issued by NWS

Home | Current Version | Previous Version | Graphics & Text | Print | Product List | Glossary On
Versions: 1 2 3 4 5 6 7 8 9 10 11 12 13 14 15 16 17 18 19 20 21 22 23 24 25 26 27 28 29 30 31 32 33 34 35 36 37 38 39 40 41 42 43 44 45 46 47 48 49 50
000
ASUS43 KTOP 261459
RWRKS

WEATHER ROUNDUP FOR KANSAS
NATIONAL WEATHER SERVICE GOODLAND KS
1000 AM CDT THU APR 26 2018

NOTE:  "FAIR" INDICATES FEW OR NO CLOUDS BELOW 12,000 FEET WITH NO
SIGNIFICANT WEATHER AND/OR OBSTRUCTIONS TO VISIBILITY.

KSZ001>006-013>018-027>032-041>047-261600-
NORTHWEST KANSAS

CITY           SKY/WX    TMP DP  RH WIND       PRES   REMARKS
GOODLAND       PTSUNNY   54  35  48 N38G54    30.04R
HILL CITY      CLOUDY    49  40  71 W7        30.00R
RUSSELL        MOSUNNY   54  45  71 SW10      29.97F
$$

KSZ061>065-074>080-084>089-261600-
SOUTHWEST KANSAS

CITY           SKY/WX    TMP DP  RH WIND       PRES   REMARKS
DODGE CITY     CLOUDY    54  40  59 S7        29.99S
GARDEN CITY    SUNNY     49  38  65 W6        29.98S
$$

KSZ066>073-081>083-090>101-261600-
SOUTHEAST KANSAS

CITY           SKY/WX    TMP DP  RH WIND       PRES   REMARKS
CHANUTE        SUNNY     54  46  74 NW7       30.05R
COFFEYVILLE    CLOUDY    52  46  80 NW5       30.05R
HUTCHINSON     SUNNY     51  44  77 S9        30.02F
MEDICINE LODGE   N/A     51  43  74 VRB6      30.02F
PARSONS        PTSUNNY   52  47  83 VRB3      30.06R
WICHITA INTL   MOSUNNY   53  44  71 VRB3      30.04F
WICHITA JABRA  SUNNY     51  43  74 CALM      30.04F
$$

KSZ007>012-019>026-033>040-048>060-102>105-261600-
NORTHEAST KANSAS

CITY           SKY/WX    TMP DP  RH WIND       PRES   REMARKS
EMPORIA        SUNNY     50  43  77 W7        30.04F
LAWRENCE       SUNNY     51  46  83 W6        30.03S
MANHATTAN      CLOUDY    47  45  93 S3        30.02F
OLATHE IND     SUNNY     52  44  74 NW7       30.04R
OLATHE EXE     SUNNY     52  42  69 W7        30.03R
SALINA         SUNNY     51  47  86 S8        30.01F
TOPEKA BILLARD SUNNY     51  46  83 NW6       30.03F
TOPEKA FORBES  SUNNY     52  45  77 NW6       30.02F
$$



USA.gov is the U.S. government's official web portal to all federal, state and local government web resources and services.